Location: Fours
(44.3167°N, 6.7000°E)
Time: 12:49:11
(UTC+00:00)

Cosmos 2227 - Pass Details

Date: 02 June 2022
Orbit: 833 x 863 km, 71.0° (Epoch: 28 June)

Event Time Altitude Azimuth Distance (km) Brightness Sun altitude
Rises 21:08:51 0° 322° (NW) 3,448 9.2 -15.9°
Reaches altitude 10° 21:11:47 10° 309° (NW) 2,508 7.8 -16.2°
Maximum altitude 21:16:10 23° 259° (W) 1,764 6.1 -16.6°
Drops below altitude 10° 21:20:31 10° 209° (SSW) 2,494 6.4 -17.0°
Enters shadow 21:21:16 - 205° (SSW) 2,715 6.5 -17.1°
